Hourly Data Report for July 16, 2021

TORONTO CITY CENTRE
ONTARIO
Current Station Operator: NAVCAN

43°37'39.000" N
79°23'46.000" W
76.80 m
6158359
71265
YTZ

Download Data

Hourly Data (July 2021)
Hourly Data Report for July 16, 2021
TIME
LST
Temp Definition
°C
Dew Point Definition
°C
Rel Hum Definition
%
Precip. Amount Definition
mm

Wind Dir Definition
10's deg

Wind Spd Definition
km/h
Visibility Definition
km
Stn Press Definition
kPa
Hmdx Definition


Wind Chill Definition


Weather Definition


00:00 21.0 18.6 86 0.0 28 13 16.1 100.45 27   LegendNANA
01:00 20.6 18.4 87 0.0 27 11 16.1 100.48 27   LegendNANA
02:00 20.3 17.7 85 0.0 29 8 16.1 100.51 26   LegendNANA
03:00 20.0 17.5 85 0.0 27 8 16.1 100.55 26   LegendNANA
04:00 20.1 17.2 83 0.0 30 9 16.1 100.60 26   LegendNANA
05:00 19.4 16.9 85 0.0 31 11 16.1 100.67     LegendNANA
06:00 19.6 17.1 85 0.0 31 9 16.1 100.74     LegendNANA
07:00 20.2 16.9 81 0.0 35 8 16.1 100.79 25   LegendNANA
08:00 21.0 17.0 78 0.0 30 11 16.1 100.86 26   LegendNANA
09:00 21.5 16.2 71 0.0 32 8 16.1 100.89 26   LegendNANA
10:00 22.2 16.0 68 0.0 32 9 16.1 100.88 27   LegendNANA
11:00 22.9 17.3 70 0.0 LegendMM 11 16.1 100.89 28   LegendNANA
12:00 21.8 18.0 79 0.0 17 17 16.1 100.91 28   LegendNANA
13:00 21.9 18.2 79 0.0 17 11 16.1 100.89 28   LegendNANA
14:00 21.9 17.8 77 0.0 17 11 16.1 100.87 28   LegendNANA
15:00 21.7 18.1 80 0.0 15 9 16.1 100.83 28   LegendNANA
16:00 21.5 17.0 75 0.0 16 9 16.1 100.81 27   LegendNANA
17:00 21.0 17.4 80 0.0 16 9 16.1 100.80 27   LegendNANA
18:00 21.1 17.7 81 0.0 LegendMM 4 16.1 100.80 27   LegendNANA
19:00 20.8 17.8 83 0.0 11 5 16.1 100.79 27   LegendNANA
20:00 20.6 17.3 81 0.0 7 8 16.1 100.81 26   LegendNANA
21:00 21.0 16.9 77 0.0 10 9 16.1 100.87 26   LegendNANA
22:00 20.8 17.3 80 0.0 8 11 16.1 100.88 26   LegendNANA
23:00 21.1 15.6 71 0.0 5 11 16.1 100.84 25   LegendNANA

Notes on Data Quality.

Legend

  • E = Estimated
  • M = Missing
  • NA = Not Available*
  • [empty] = Indicates an unobserved value
Date modified: